STARLINK-32010, 60279

Orbit data source: Space-Track

STARLINK-32010, 60279 is a payload satellite owned by SpaceX/Seattle (US) in LEO that was launched on Sun, 28 Jul 2024 UTC via an FALCON 9 launch vehicle from the Air Force Eastern Test Range (AFETR). Payload-class satellites include a variety of spacecraft equipped with specific instruments for various scientific and technological missions. These include communications satellites like Starlink; space stations such as the ISS; scientific satellites like the Hubble; Earth observation satellites from companies like Planet Labs, Umbra, and HawkEye 360; GPS; miniature CubeSats for education and research; and military/defense satellites.

Loading next visibility...
Identifier
60279, 2024-132B
Orbit
LEO
Last TLE update
10 hours ago
Origin
Manufacturer
SpaceX/Seattle
Mission
Operational spacecraft
Bus & Motor
STARLINK V2M, Unknown motor
Mass
730 kg wet, ~700 kg dry
Launch date (UTC)
2024-07-28 (11 months ago)
Launch vehicle
FALCON 9
Launch site
Air Force Eastern Test Range (AFETR)
Object type
Payload
Rocket body
Debris
Shape & HBR
Unknown
Radar Cross Section
Large (>1 m²)

Expand to show TLE details & history

TLE from 10 hours ago
0 STARLINK-32010
1 60279U 24132B   25189.91545967  .00001380  00000-0  58711-4 0  9995
2 60279  53.1606 105.0130 0001220  72.9945 287.1189 15.30190507 54239
Epoch: 2025-07-08T21:58Z
TLE epoch observation values (Epoch: 2025-07-08T21:58:15.715Z)
Latitude
-0.00005°
Longitude
-151.65611°
Altitude
475.897 km
Speed
7.629 km/s
True Right ascension
07h 00m 03s
True Declination
0° 00' 00"
Sunlit
Object was in daylight at epoch
Visualization orbit readout
Latitude
38.328°
Longitude
-9.67031°
Altitude
478.001 km
Speed
7.632 km/s
Apparent Right ascension
12h 37m 57s
Apparent Declination
1° 56' 04"
Sunlit
Object is in daylight
Visualization observer readout
Local Sidereal Time
20:05:56
Azimuth
286.02° WNW
Elevation
-15.393°
Doppler factor
1
Orbital elements
Apogee altitude
476.336 km
Perigee altitude
474.664 km
Semi-major axis
6,853.637 km
Eccentricity
0.00012
Inclination
53.1606°
RAAN
105.013°
Arg. of periapsis
72.9945°
True anomaly
Unknown
Mean anomaly
287.1189°
Eccentric anomaly
Unknown
Mean motion
3.82527 °/min
Orbital period
94.11 mins
BSTAR
0.000058711
Loading maneuver chart data...
Loading SW <> Apogee altitude chart data...
Loading historical data...
Loading historical data...
Loading historical data...
Loading historical data...
Loading historical data...
Loading historical data...
Loading historical data...

STARLINK-32010 Visibility forecast

Observer location: undefined°, undefined°

Span
Click to sort rows by Start time (UTC) header in descending order
Start Az.
Max El. time (UTC)
Max El. Az.
Max El.
End time (UTC)
End Az.
5 mins2025-07-09 20:04:21.304Z179.343° S2025-07-09 20:06:21.304Z141.946° SSE21.534°2025-07-09 20:09:21.304Z79.628° E
5 mins2025-07-09 21:42:21.304Z264.805° W2025-07-09 21:44:21.304Z317.714° NNW32.84°2025-07-09 21:47:21.304Z33.913° NE
5 mins2025-07-10 02:39:21.304Z340.698° N2025-07-10 02:41:21.304Z25.456° NE23.794°2025-07-10 02:44:21.304Z85.156° E
5 mins2025-07-10 04:17:21.304Z289.092° WNW2025-07-10 04:19:21.304Z232.336° WSW35.055°2025-07-10 04:22:21.304Z155.701° SSE
|